• In Denmark
  • List of Countries
  • For 7 days
  • Water Temperature
  • Satellite Maps
  • Weather Map
  • Weather Widgets
  • user-avatar
    Login

    Hourly Weather Gaborone

    Today, 15 December, Friday

    Time Temperature Precipitation Wind Pressure Humidity
    00:00 +26°C° 0 mm 2 mps 676 mmHg 18%
    01:00 +26°C° 0 mm 2 mps 676 mmHg 19%
    02:00 +25°C° 0 mm 2 mps 676 mmHg 20%
    03:00 +24°C° 0 mm 2 mps 676 mmHg 25%
    04:00 +23°C° 0 mm 2 mps 677 mmHg 30%
    05:00 +23°C° 0 mm 2 mps 677 mmHg 35%
    06:00 +22°C° 0 mm 4 mps 678 mmHg 44%
    07:00 +23°C° 0 mm 5 mps 678 mmHg 52%
    08:00 +26°C° 0 mm 6 mps 679 mmHg 55%
    09:00 +26°C° 0 mm 6 mps 679 mmHg 54%
    10:00 +27°C° 0 mm 7 mps 679 mmHg 54%
    11:00 +28°C° 0 mm 7 mps 679 mmHg 54%
    12:00 +29°C° 0 mm 6 mps 679 mmHg 48%
    13:00 +30°C° 0 mm 6 mps 679 mmHg 43%
    14:00 +32°C° 0 mm 6 mps 679 mmHg 40%
    15:00 +32°C° 0 mm 6 mps 679 mmHg 39%
    16:00 +32°C° 0 mm 5 mps 679 mmHg 38%
    17:00 +32°C° 0 mm 5 mps 678 mmHg 37%
    18:00 +30°C° 0 mm 5 mps 678 mmHg 42%
    19:00 +28°C° 0 mm 5 mps 678 mmHg 48%
    20:00 +27°C° 0 mm 5 mps 678 mmHg 54%
    21:00 +26°C° 0 mm 6 mps 679 mmHg 56%
    22:00 +24°C° 0 mm 6 mps 679 mmHg 59%
    23:00 +23°C° 0 mm 6 mps 679 mmHg 62%

    Tomorrow, 16 December, Saturday

    Time Temperature Precipitation Wind Pressure Humidity
    00:00 +23°C° 0 mm 6 mps 679 mmHg 63%
    01:00 +22°C° 0 mm 5 mps 678 mmHg 65%
    02:00 +21°C° 0 mm 5 mps 678 mmHg 66%
    03:00 +21°C° 0 mm 4 mps 678 mmHg 68%
    04:00 +20°C° 0 mm 4 mps 678 mmHg 70%
    05:00 +20°C° 0 mm 4 mps 678 mmHg 72%
    06:00 +21°C° 0 mm 4 mps 679 mmHg 68%
    07:00 +22°C° 0 mm 5 mps 679 mmHg 64%
    08:00 +23°C° 0 mm 5 mps 680 mmHg 60%
    09:00 +26°C° 0 mm 5 mps 680 mmHg 52%
    10:00 +29°C° 0 mm 5 mps 680 mmHg 44%
    11:00 +32°C° 0 mm 5 mps 680 mmHg 36%
    12:00 +33°C° 0 mm 4 mps 680 mmHg 32%
    13:00 +34°C° 0 mm 4 mps 679 mmHg 28%
    14:00 +36°C° 0 mm 3 mps 679 mmHg 24%
    15:00 +36°C° 0 mm 3 mps 678 mmHg 22%
    16:00 +36°C° 0 mm 3 mps 678 mmHg 21%
    17:00 +36°C° 0 mm 3 mps 677 mmHg 20%
    18:00 +34°C° 0 mm 3 mps 677 mmHg 23%
    19:00 +33°C° 0 mm 3 mps 677 mmHg 26%
    20:00 +30°C° 0 mm 3 mps 676 mmHg 29%
    21:00 +29°C° 0 mm 3 mps 677 mmHg 31%
    22:00 +28°C° 0 mm 3 mps 677 mmHg 32%
    23:00 +28°C° 0 mm 3 mps 677 mmHg 34%

    Day after tomorrow, 17 December, Sunday

    Time Temperature Precipitation Wind Pressure Humidity
    00:00 +27°C° 0 mm 3 mps 677 mmHg 35%
    01:00 +26°C° 0 mm 3 mps 677 mmHg 36%
    02:00 +26°C° 0 mm 3 mps 677 mmHg 37%
    03:00 +25°C° 0 mm 2 mps 677 mmHg 39%
    04:00 +25°C° 0 mm 2 mps 676 mmHg 40%
    05:00 +24°C° 0 mm 2 mps 676 mmHg 42%
    06:00 +26°C° 0 mm 2 mps 677 mmHg 39%
    07:00 +27°C° 0 mm 3 mps 678 mmHg 36%
    08:00 +29°C° 0 mm 3 mps 678 mmHg 33%
    09:00 +31°C° 0 mm 3 mps 678 mmHg 29%
    10:00 +34°C° 0 mm 4 mps 678 mmHg 25%
    11:00 +36°C° 0 mm 4 mps 679 mmHg 21%
    12:00 +37°C° 0 mm 4 mps 678 mmHg 19%
    13:00 +38°C° 0 mm 4 mps 677 mmHg 17%
    14:00 +41°C° 0 mm 4 mps 676 mmHg 15%
    15:00 +40°C° 0 mm 4 mps 676 mmHg 15%
    16:00 +40°C° 0 mm 4 mps 675 mmHg 15%
    17:00 +39°C° 0 mm 3 mps 675 mmHg 14%
    18:00 +37°C° 0 mm 3 mps 675 mmHg 16%
    19:00 +35°C° 0 mm 3 mps 675 mmHg 19%
    20:00 +33°C° 0 mm 3 mps 675 mmHg 21%
    21:00 +31°C° 0 mm 2 mps 675 mmHg 22%
    22:00 +31°C° 0 mm 2 mps 675 mmHg 23%
    23:00 +30°C° 0 mm 2 mps 675 mmHg 24%

    18 December, Monday

    Time Temperature Precipitation Wind Pressure Humidity
    00:00 +29°C° 0 mm 2 mps 675 mmHg 25%
    01:00 +29°C° 0 mm 2 mps 675 mmHg 27%
    02:00 +28°C° 0 mm 2 mps 674 mmHg 28%
    03:00 +27°C° 0 mm 3 mps 674 mmHg 29%
    04:00 +27°C° 0 mm 3 mps 674 mmHg 31%
    05:00 +26°C° 0 mm 4 mps 674 mmHg 32%
    06:00 +28°C° 0 mm 5 mps 675 mmHg 32%
    07:00 +29°C° 0 mm 6 mps 676 mmHg 31%
    08:00 +30°C° 0 mm 7 mps 676 mmHg 31%
    09:00 +33°C° 0 mm 7 mps 676 mmHg 27%
    10:00 +35°C° 0 mm 7 mps 676 mmHg 24%
    11:00 +38°C° 0 mm 7 mps 676 mmHg 20%
    12:00 +39°C° 0 mm 6 mps 676 mmHg 18%
    13:00 +40°C° 0 mm 5 mps 675 mmHg 15%
    14:00 +41°C° 0 mm 5 mps 675 mmHg 13%
    15:00 +41°C° 0 mm 4 mps 674 mmHg 13%
    16:00 +41°C° 0 mm 4 mps 673 mmHg 13%
    17:00 +39°C° 0 mm 3 mps 673 mmHg 13%
    18:00 +38°C° 0 mm 3 mps 673 mmHg 15%
    19:00 +36°C° 0 mm 2 mps 673 mmHg 17%
    20:00 +34°C° 0 mm 2 mps 673 mmHg 19%
    21:00 +32°C° 0 mm 2 mps 673 mmHg 21%
    22:00 +32°C° 0 mm 2 mps 674 mmHg 23%
    23:00 +31°C° 0 mm 3 mps 674 mmHg 26%

    19 December, Tuesday

    Time Temperature Precipitation Wind Pressure Humidity
    00:00 +30°C° 0 mm 2 mps 673 mmHg 28%
    01:00 +29°C° 0 mm 1 mps 673 mmHg 31%
    02:00 +28°C° 0 mm 1 mps 673 mmHg 33%
    03:00 +27°C° 0 mm 1 mps 673 mmHg 34%
    04:00 +27°C° 0 mm 2 mps 673 mmHg 34%
    05:00 +26°C° 0 mm 2 mps 673 mmHg 35%
    06:00 +28°C° 0 mm 3 mps 674 mmHg 33%
    07:00 +29°C° 0 mm 3 mps 675 mmHg 32%
    08:00 +32°C° 0 mm 4 mps 676 mmHg 30%
    09:00 +33°C° 0 mm 4 mps 676 mmHg 28%
    10:00 +34°C° 0 mm 3 mps 676 mmHg 26%
    11:00 +35°C° 0 mm 2 mps 675 mmHg 24%
    12:00 +35°C° 0 mm 3 mps 675 mmHg 23%
    13:00 +36°C° 0 mm 3 mps 674 mmHg 23%
    14:00 +36°C° 0 mm 3 mps 673 mmHg 23%
    15:00 +36°C° 0 mm 3 mps 673 mmHg 23%
    16:00 +36°C° 0 mm 3 mps 673 mmHg 23%
    17:00 +36°C° 0 mm 3 mps 673 mmHg 23%
    18:00 +35°C° 0 mm 2 mps 673 mmHg 24%
    19:00 +32°C° 0 mm 2 mps 673 mmHg 26%
    20:00 +31°C° 0 mm 2 mps 673 mmHg 28%
    21:00 +31°C° 0 mm 2 mps 674 mmHg 28%
    22:00 +31°C° 0 mm 2 mps 674 mmHg 29%
    23:00 +30°C° 0 mm 2 mps 674 mmHg 30%

    20 December, Wednesday

    Time Temperature Precipitation Wind Pressure Humidity
    00:00 +30°C° 0 mm 2 mps 674 mmHg 31%
    01:00 +30°C° 0 mm 2 mps 673 mmHg 33%
    02:00 +29°C° 0 mm 2 mps 673 mmHg 34%
    03:00 +29°C° 0 mm 2 mps 673 mmHg 35%
    04:00 +28°C° 0 mm 2 mps 673 mmHg 37%
    05:00 +27°C° 0 mm 2 mps 674 mmHg 38%
    06:00 +29°C° 0 mm 3 mps 674 mmHg 37%
    07:00 +30°C° 0 mm 4 mps 675 mmHg 36%
    08:00 +32°C° 0 mm 5 mps 676 mmHg 34%
    09:00 +34°C° 0 mm 5 mps 676 mmHg 32%
    10:00 +36°C° 0 mm 5 mps 676 mmHg 29%
    11:00 +39°C° 0 mm 5 mps 676 mmHg 27%
    12:00 +39°C° 0 mm 5 mps 676 mmHg 26%
    13:00 +38°C° 0 mm 4 mps 675 mmHg 24%
    14:00 +38°C° 0 mm 4 mps 675 mmHg 23%
    15:00 +38°C° 0 mm 4 mps 674 mmHg 24%
    16:00 +37°C° 0 mm 4 mps 674 mmHg 25%
    17:00 +37°C° 0 mm 3 mps 674 mmHg 26%
    18:00 +35°C° 0.4 mm 3 mps 674 mmHg 32%
    19:00 +32°C° 0.4 mm 2 mps 674 mmHg 38%
    20:00 +30°C° 0.4 mm 1 mps 674 mmHg 43%
    21:00 +30°C° 0.5 mm 2 mps 674 mmHg 46%
    22:00 +29°C° 0.5 mm 3 mps 675 mmHg 49%
    23:00 +29°C° 0.5 mm 3 mps 675 mmHg 52%
    Show more